This demonstration page uses our WeatherBlox Daily Observations layout. Learn more.

Left ArrowRight Arrow

40.92945, -100.16068

Hourly Observations for October 19, 2016

Temp ( °F °C ) Dew Point ( °F °C ) Humidity (%) Winds ( mph kmh ) Pressure ( in mb ) Visibility ( mi km ) Precip ( " mm )
12:15 am 00:15 Mostly Cloudy 51 10.5 38 3.1 60 60 N N/A 30.03 1017 10 16 N/A
12:35 am 00:35 Partly Cloudy 51 10.4 37 2.5 58 58 N N/A 30.03 1017 10 16 N/A
12:55 am 00:55 Clear 49 9.3 37 2.8 64 64 N N/A 30.06 1018 10 16 N/A
1:15 am 01:15 Partly Cloudy 47 8.5 37 2.9 68 68 N 6 9 30.06 1018 10 16 N/A
1:35 am 01:35 Partly Cloudy 48 8.8 37 2.9 67 67 N N/A 30.06 1018 10 16 N/A
1:55 am 01:55 Partly Cloudy 47 8.3 37 3 70 70 N N/A 30.06 1018 10 16 N/A
2:15 am 02:15 Partly Cloudy 45 7.1 37 3 75 75 N N/A 30.06 1018 10 16 N/A
2:35 am 02:35 Clear 44 6.8 37 2.9 76 76 S 8 13 30.09 1019 10 16 N/A
2:55 am 02:55 Clear 45 7.2 38 3.2 76 76 ESE 3 6 30.06 1018 10 16 N/A
3:15 am 03:15 Clear 47 8.3 38 3.6 73 73 SE 9 15 30.06 1018 10 16 N/A
3:35 am 03:35 Hazy 50 10.1 38 3.4 63 63 SE 6 9 30.06 1018 4 6 N/A
3:55 am 03:55 Hazy 50 10.2 38 3.5 63 63 N N/A 30.06 1018 5 8 N/A
4:15 am 04:15 Clear 48 8.7 38 3.5 70 70 ESE 3 6 30.06 1018 10 16 N/A
4:35 am 04:35 Hazy 50 10.1 39 3.7 65 65 SE 6 9 30.06 1018 4 6 N/A
4:55 am 04:55 Clear 49 9.5 39 3.8 68 68 N N/A 30.06 1018 10 16 N/A
5:15 am 05:15 Clear 49 9.6 39 4 68 68 N N/A 30.06 1018 10 16 N/A
5:35 am 05:35 Partly Cloudy 47 8.6 39 4.1 74 74 ENE 5 7 30.06 1018 10 16 N/A
5:55 am 05:55 Partly Cloudy 47 8.3 39 4.1 75 75 NNE 3 6 30.09 1019 10 16 N/A
6:15 am 06:15 Partly Cloudy 46 8 40 4.2 77 77 NNE 5 7 30.09 1019 10 16 N/A
6:35 am 06:35 Partly Cloudy 46 7.8 39 4.1 78 78 N 3 6 30.12 1020 10 16 N/A
6:55 am 06:55 Partly Cloudy 46 7.6 40 4.3 80 80 N N/A 30.15 1021 10 16 N/A
7:15 am 07:15 Mostly Cloudy 47 8.2 40 4.5 78 78 WNW 8 13 30.12 1020 10 16 N/A
7:35 am 07:35 Cloudy 48 8.8 40 4.5 75 75 NW 8 13 30.15 1021 10 16 N/A
7:55 am 07:55 Cloudy 49 9.6 40 4.7 72 72 N 8 13 30.15 1021 10 16 N/A
8:15 am 08:15 Cloudy 49 9.5 41 5 74 74 N 6 9 30.15 1021 10 16 N/A
8:35 am 08:35 Cloudy 50 10 42 5.4 73 73 NNE 6 9 30.15 1021 10 16 N/A
8:55 am 08:55 Cloudy 51 10.6 42 5.6 71 71 NE 7 11 30.15 1021 10 16 N/A
9:15 am 09:15 Cloudy 53 11.5 42 5.6 67 67 NE 8 13 30.15 1021 10 16 N/A
9:35 am 09:35 Cloudy 54 12 41 4.9 62 62 NNE 7 11 30.15 1021 10 16 N/A
9:55 am 09:55 Cloudy 55 12.7 41 4.9 59 59 NNE 7 11 30.15 1021 10 16 N/A
10:15 am 10:15 Mostly Cloudy 55 12.7 41 5.1 60 60 N 9 15 30.15 1021 10 16 N/A
10:35 am 10:35 Mostly Cloudy 55 12.8 41 5.1 60 60 N 6 9 30.15 1021 10 16 N/A
10:55 am 10:55 Cloudy 55 13 41 5.1 59 59 N 8 13 30.15 1021 10 16 N/A
11:15 am 11:15 Cloudy 57 13.7 41 5.2 57 57 NNE 10 17 30.15 1021 10 16 N/A
11:35 am 11:35 Cloudy 57 13.8 41 4.9 55 55 N 8 13 30.18 1022 10 16 N/A
11:55 am 11:55 Cloudy 58 14.4 42 5.4 55 55 N 10 17 30.15 1021 10 16 N/A
12:15 pm 12:15 Cloudy 58 14.5 42 5.7 56 56 NNE 7 11 30.15 1021 10 16 N/A
12:35 pm 12:35 Cloudy 58 14.4 42 5.4 55 55 N 12 19 30.15 1021 10 16 N/A
12:55 pm 12:55 Cloudy 58 14.5 42 5.7 56 56 NNE 6 9 30.18 1022 10 16 N/A
1:15 pm 13:15 Cloudy 58 14.5 42 5.5 55 55 NNE 10 17 30.18 1022 10 16 N/A
1:35 pm 13:35 Cloudy 58 14.4 42 5.5 55 55 NE 9 15 30.15 1021 10 16 N/A
1:55 pm 13:55 Cloudy 59 14.9 41 5.1 52 52 NNE 9 15 30.12 1020 10 16 N/A
2:15 pm 14:15 Mostly Cloudy 59 15 41 5.1 52 52 NE 8 13 30.12 1020 10 16 N/A
2:35 pm 14:35 Cloudy 59 14.8 41 5.2 53 53 NNE 6 9 30.12 1020 10 16 N/A
2:55 pm 14:55 Cloudy 58 14.7 41 5.2 53 53 NE 7 11 30.12 1020 10 16 N/A
3:15 pm 15:15 Cloudy 59 15 41 5.1 52 52 ENE 7 11 30.09 1019 10 16 N/A
3:35 pm 15:35 Cloudy 59 15.1 41 4.9 51 51 NE 9 15 30.09 1019 10 16 N/A
3:55 pm 15:55 Cloudy 59 15.2 40 4.2 48 48 ENE 9 15 30.09 1019 10 16 N/A
4:15 pm 16:15 Mostly Cloudy 61 15.9 40 4.3 46 46 ENE 7 11 30.09 1019 10 16 N/A
4:35 pm 16:35 Partly Cloudy 60 15.7 39 4 46 46 E 12 19 30.09 1019 10 16 N/A
4:55 pm 16:55 Partly Cloudy 59 15.2 39 3.7 46 46 E 9 15 30.12 1020 10 16 N/A
5:15 pm 17:15 Mostly Cloudy 59 15 39 3.9 48 48 E 7 11 30.12 1020 10 16 N/A
5:35 pm 17:35 Cloudy 58 14.5 40 4.2 50 50 NNE 5 7 30.15 1021 10 16 N/A
5:55 pm 17:55 Cloudy with Rain 54 12.2 41 4.8 61 61 NNW 14 22 30.21 1023 10 16 N/A
6:15 pm 18:15 Cloudy with Rain 50 9.8 44 6.7 81 81 N 7 11 30.21 1023 7 11 0.03 0.76
6:35 pm 18:35 Mostly Cloudy 49 9.6 45 7 84 84 N N/A 30.24 1024 10 16 0.03 0.76
6:55 pm 18:55 Mostly Cloudy 49 9.5 45 7.3 86 86 ENE 7 11 30.24 1024 10 16 0.03 0.76
7:15 pm 19:15 Partly Cloudy 48 9 45 7.1 88 88 ENE 6 9 30.24 1024 10 16 N/A
7:35 pm 19:35 Clear 47 8.3 44 6.5 89 89 NE 6 9 30.27 1025 10 16 N/A
7:55 pm 19:55 Clear 45 7 42 5.4 90 90 NE 3 6 30.27 1025 10 16 N/A
8:15 pm 20:15 Clear 43 5.9 40 4.6 91 91 N 6 9 30.27 1025 10 16 N/A
8:35 pm 20:35 Clear 42 5.7 40 4.6 93 93 N 3 6 30.33 1027 10 16 N/A
8:55 pm 20:55 Clear 40 4.7 39 3.7 93 93 WNW 7 11 30.33 1027 10 16 N/A
9:15 pm 21:15 Clear 40 4.5 38 3.4 93 93 NW 5 7 30.33 1027 10 16 N/A
9:35 pm 21:35 Clear 40 4.5 38 3.5 93 93 WNW 5 7 30.33 1027 10 16 N/A
9:55 pm 21:55 Clear 39 3.8 37 2.9 94 94 NW 6 9 30.36 1028 10 16 N/A
10:15 pm 22:15 Clear 39 3.8 37 2.9 94 94 NNW 5 7 30.36 1028 10 16 N/A
10:35 pm 22:35 Clear 38 3.4 37 2.5 94 94 NW 6 9 30.36 1028 7 11 N/A
10:55 pm 22:55 Clear with Mist and Fog 38 3.2 37 2.5 95 95 NNW 7 11 30.39 1029 3 4 N/A
11:15 pm 23:15 Mostly Cloudy with Mist and Fog 39 3.7 37 2.9 95 95 NW 7 11 30.39 1029 2 2 N/A
11:35 pm 23:35 Partly Cloudy 41 5 40 4.3 95 95 NW 7 11 30.39 1029 10 16 N/A
11:55 pm 23:55 Cloudy 44 6.6 43 6 96 96 WNW 6 9 30.36 1028 10 16 N/A

Powered by AerisWeather